This is the latest recevied weather packets stored in our database for station/object EA3HRE-13. If no packets are shown the sender has not sent any weather packets the latest 10 day(s).
| Time | Temp. | Humidity | Pressure | Rain* | Wind** | Luminosity | Snow |
|---|---|---|---|---|---|---|---|
| 1787650699 | 28.89° C | 100% | 1011.4 hPa | 0 mm | - | - | - |
| 1787650069 | 28.89° C | 100% | 1011.3 hPa | 0 mm | - | - | - |
| 1787649469 | 28.33° C | 100% | 1011.5 hPa | 0 mm | - | - | - |
| 1787648869 | 28.33° C | 100% | 1011.5 hPa | 0 mm | - | - | - |
| 1787648269 | 28.33° C | 100% | 1011.3 hPa | 0 mm | - | - | - |
| 1787647669 | 27.78° C | 100% | 1011.4 hPa | 0 mm | - | - | - |
| 1787647068 | 27.78° C | 100% | 1011.3 hPa | 0 mm | - | - | - |
| 1787646450 | 27.78° C | 100% | 1011.1 hPa | 0 mm | - | - | - |
| 1787645850 | 27.22° C | 100% | 1011 hPa | 0 mm | - | - | - |
| 1787645220 | 26.67° C | 100% | 1011.3 hPa | 0 mm | - | - | - |
| 1787644620 | 26.11° C | 100% | 1011.2 hPa | 0 mm | - | - | - |
| 1787644020 | 26.11° C | 100% | 1011.3 hPa | 0 mm | - | - | - |
| 1787643419 | 25.56° C | 100% | 1011.2 hPa | 0 mm | - | - | - |
| 1787642819 | 24.44° C | 100% | 1011.2 hPa | 0 mm | - | - | - |
| 1787642219 | 24.44° C | 100% | 1011.1 hPa | 0 mm | - | - | - |
| 1787641619 | 23.33° C | 100% | 1010.8 hPa | 0 mm | - | - | - |
| 1787641019 | 23.33° C | 100% | 1010.7 hPa | 0 mm | - | - | - |
| 1787640419 | 22.78° C | 100% | 1010.6 hPa | 0 mm | - | - | - |
| 1787639819 | 22.78° C | 100% | 1010.7 hPa | 0 mm | - | - | - |
| 1787639219 | 22.78° C | 100% | 1010.7 hPa | 0 mm | - | - | - |
| 1787638619 | 22.78° C | 100% | 1010.6 hPa | 0 mm | - | - | - |
| 1787638018 | 22.22° C | 100% | 1010.6 hPa | 0 mm | - | - | - |
| 1787637418 | 22.22° C | 100% | 1010.6 hPa | 0 mm | - | - | - |
| 1787636818 | 22.22° C | 100% | 1010.6 hPa | 0 mm | - | - | - |
| 1787636218 | 21.67° C | 100% | 1010.5 hPa | 0 mm | - | - | - |
* Rain latest hour (hover to see other rain measurements)
** Current wind speed in m/s (hover to see current wind gust speed)